Bellefontaine, OH

7:51 PM EDT on March 27, 2017 (GMT -0400)
Bellefontaine

Weather History for KEDJ - September, 2013

Change the Weather History Date:

Wednesday, September 11, 2013

  Actual Average (KDAY) Record (KDAY)
Temperature  
Mean Temperature 80 °F -  
Max Temperature 91 °F 77 °F 98 °F (1897)
Min Temperature 69 °F 56 °F 40 °F (1917)
Cooling Degree Days 15    
Growing Degree Days 30 (Base 50)    
Moisture  
Dew Point 68 °F    
Average Humidity 75    
Maximum Humidity 100    
Minimum Humidity 38    
Precipitation  
Precipitation 0.59 in - - ()
Sea Level Pressure  
Sea Level Pressure 30.08 in    
Wind  
Wind Speed 6 mph (South)    
Max Wind Speed 15 mph    
Max Gust Speed 61 mph    
Visibility 9 miles    
Events      
Averages and records for this station are not official NWS values.
T = Trace of Precipitation, MM = Missing Value Source: NWS Daily Summary

Daily Weather History Graph

Daily Weather History Graph

Search for Another Location

Airport or City:

Trip Planner

Search our weather history database for the weather conditions in past years. The results will help you decide how hot, cold, wet, or windy it might be!

Date:

Astronomy

Sep. 11, 2013 Rise Set
Actual Time 7:12 AM EDT 7:50 PM EDT
Civil Twilight 6:45 AM EDT 8:17 PM EDT
Nautical Twilight 6:12 AM EDT 8:50 PM EDT
Astronomical Twilight 5:39 AM EDT 9:23 PM EDT
Moon 1:40 PM EDT (9/11) 11:44 PM EDT (9/11)
Length of Visible Light 13h 32m
Length of Day
12h 37m
Waxing Crescent, 38% of the Moon is Illuminated
Sep 11
Waxing Crescent
Sep 12
First Quarter
Sep 19
Full
Sep 26
Last Quarter
Oct 4
New

Hourly Weather History & Observations

Time (EDT) Temp. Heat Index Dew Point Humidity Pressure Visibility Wind Dir Wind Speed Gust Speed Precip Events Conditions
12:10 AM 73.4 °F - 71.6 °F 94% 30.12 in 9.0 mi SSE 4.6 mph - 0.00 in   Clear
12:30 AM 73.4 °F - 69.8 °F 88% 30.11 in 10.0 mi SSE 5.8 mph - 0.00 in   Clear
12:50 AM 73.4 °F - 69.8 °F 88% 30.12 in 10.0 mi SSE 3.5 mph - 0.00 in   Clear
1:10 AM 71.6 °F - 69.8 °F 94% 30.11 in 10.0 mi SE 3.5 mph - 0.00 in   Clear
1:30 AM 71.6 °F - 69.8 °F 94% 30.11 in 10.0 mi SE 6.9 mph - 0.00 in   Clear
1:50 AM 71.6 °F - 69.8 °F 94% 30.11 in 10.0 mi SSE 5.8 mph - 0.00 in   Clear
2:10 AM 71.6 °F - 68.0 °F 88% 30.11 in 10.0 mi SSE 6.9 mph - 0.00 in   Clear
2:30 AM 71.6 °F - 68.0 °F 88% 30.11 in 10.0 mi South 5.8 mph - 0.00 in   Clear
2:50 AM 71.6 °F - 68.0 °F 88% 30.11 in 10.0 mi SSE 5.8 mph - 0.00 in   Clear
3:10 AM 69.8 °F - 69.8 °F 100% 30.12 in 9.0 mi SSE 5.8 mph - 0.00 in   Clear
3:30 AM 71.6 °F - 69.8 °F 94% 30.12 in 10.0 mi SSE 5.8 mph - 0.00 in   Clear
3:50 AM 71.6 °F - 68.0 °F 88% 30.11 in 10.0 mi South 5.8 mph - 0.00 in   Clear
4:10 AM 71.6 °F - 68.0 °F 88% 30.11 in 10.0 mi South 5.8 mph - 0.00 in   Clear
4:30 AM 71.6 °F - 66.2 °F 83% 30.12 in 10.0 mi South 4.6 mph - 0.00 in   Clear
4:50 AM 71.6 °F - 66.2 °F 83% 30.11 in 10.0 mi SSE 4.6 mph - 0.00 in   Clear
5:10 AM 71.6 °F - 66.2 °F 83% 30.11 in 10.0 mi South 4.6 mph - 0.00 in   Clear
5:30 AM 69.8 °F - 66.2 °F 88% 30.12 in 10.0 mi South 6.9 mph - 0.00 in   Clear
5:50 AM 69.8 °F - 66.2 °F 88% 30.12 in 10.0 mi South 5.8 mph - 0.00 in   Clear
6:10 AM 69.8 °F - 66.2 °F 88% 30.12 in 10.0 mi South 5.8 mph - 0.00 in   Clear
6:30 AM 69.8 °F - 66.2 °F 88% 30.12 in 10.0 mi South 4.6 mph - 0.00 in   Clear
6:50 AM 69.8 °F - 66.2 °F 88% 30.12 in 10.0 mi SSE 4.6 mph - 0.00 in   Clear
7:10 AM 69.8 °F - 68.0 °F 94% 30.13 in 10.0 mi SSE 5.8 mph - 0.00 in   Clear
7:30 AM 69.8 °F - 68.0 °F 94% 30.13 in 8.0 mi SSE 4.6 mph - 0.00 in   Clear
7:50 AM 71.6 °F - 69.8 °F 94% 30.13 in 8.0 mi South 5.8 mph - 0.00 in   Clear
8:05 AM 71.6 °F - 69.8 °F 94% 30.14 in 8.0 mi South 5.8 mph - 0.00 in   Partly Cloudy
8:40 AM 71.6 °F - 69.8 °F 94% 30.14 in 8.0 mi South 4.6 mph - 0.00 in   Scattered Clouds
8:50 AM 73.4 °F - 69.8 °F 88% 30.14 in 8.0 mi South 3.5 mph - 0.00 in   Scattered Clouds
9:10 AM 73.4 °F - 69.8 °F 88% 30.14 in 8.0 mi South 4.6 mph - 0.00 in   Partly Cloudy
9:30 AM 75.2 °F - 69.8 °F 83% 30.15 in 9.0 mi SSW 6.9 mph - 0.00 in   Partly Cloudy
9:50 AM 75.2 °F - 69.8 °F 83% 30.15 in 9.0 mi SSW 9.2 mph - 0.00 in   Partly Cloudy
10:10 AM 77.0 °F - 69.8 °F 78% 30.14 in 9.0 mi SW 8.1 mph - 0.00 in   Partly Cloudy
10:30 AM 78.8 °F - 69.8 °F 74% 30.14 in 9.0 mi SSW 8.1 mph - 0.00 in   Partly Cloudy
10:50 AM 80.6 °F 84.6 °F 71.6 °F 74% 30.14 in 9.0 mi SSW 10.4 mph - 0.00 in   Clear
11:10 AM 80.6 °F 84.6 °F 71.6 °F 74% 30.13 in 9.0 mi SSW 5.8 mph - 0.00 in   Clear
11:30 AM 82.4 °F 87.2 °F 71.6 °F 70% 30.13 in 10.0 mi SW 8.1 mph - 0.00 in   Clear
11:50 AM 82.4 °F 86.3 °F 69.8 °F 66% 30.12 in 10.0 mi SW 8.1 mph - 0.00 in   Clear
12:10 PM 84.2 °F 88.4 °F 69.8 °F 62% 30.11 in 10.0 mi SSW 6.9 mph - 0.00 in   Clear
12:30 PM 86.0 °F 90.4 °F 69.8 °F 58% 30.11 in 9.0 mi SSW 5.8 mph - 0.00 in   Clear
12:50 PM 86.0 °F 90.4 °F 69.8 °F 58% 30.10 in 9.0 mi SSW 6.9 mph - 0.00 in   Clear
1:10 PM 87.8 °F 92.6 °F 69.8 °F 55% 30.09 in 9.0 mi SW 6.9 mph - 0.00 in   Clear
1:30 PM 89.6 °F 93.4 °F 68.0 °F 49% 30.09 in 10.0 mi SW 5.8 mph - 0.00 in   Clear
1:50 PM 89.6 °F 93.4 °F 68.0 °F 49% 30.08 in 10.0 mi SSW 4.6 mph - 0.00 in   Clear
2:10 PM 91.4 °F 94.0 °F 66.2 °F 43% 30.07 in 10.0 mi South 9.2 mph - 0.00 in   Clear
2:30 PM 91.4 °F 92.1 °F 62.6 °F 38% 30.07 in 10.0 mi WNW 8.1 mph - 0.00 in   Scattered Clouds
2:50 PM 73.4 °F - 62.6 °F 69% 30.10 in 0.2 mi SSE 15.0 mph 61.0 mph 0.56 in   Overcast
3:10 PM 71.6 °F - 64.4 °F 78% 30.06 in 1.5 mi SSE 5.8 mph 33.4 mph 0.03 in   Overcast
3:30 PM 73.4 °F - 66.2 °F 78% 30.05 in 10.0 mi ESE 8.1 mph - 0.03 in   Partly Cloudy
3:50 PM 77.0 °F - 66.2 °F 69% 30.05 in 10.0 mi SE 11.5 mph 20.7 mph 0.03 in   Clear
4:10 PM 78.8 °F - 66.2 °F 65% 30.03 in 10.0 mi SSE 10.4 mph 17.3 mph 0.00 in   Clear
4:30 PM 82.4 °F 84.6 °F 66.2 °F 58% 30.03 in 10.0 mi SSE 6.9 mph - 0.00 in   Clear
4:50 PM 84.2 °F 86.6 °F 66.2 °F 55% 30.03 in 10.0 mi SSE 11.5 mph 19.6 mph 0.00 in   Clear
5:10 PM 84.2 °F 86.6 °F 66.2 °F 55% 30.02 in 10.0 mi SSE 8.1 mph - 0.00 in   Clear
5:30 PM 84.2 °F 88.4 °F 69.8 °F 62% 30.01 in 10.0 mi SE 8.1 mph - 0.00 in   Clear
5:50 PM 84.2 °F 88.4 °F 69.8 °F 62% 30.01 in 10.0 mi SSE 6.9 mph - 0.00 in   Clear
6:10 PM 84.2 °F 88.4 °F 69.8 °F 62% 30.01 in 10.0 mi South 5.8 mph - 0.00 in   Clear
6:30 PM 82.4 °F 86.3 °F 69.8 °F 66% 30.01 in 10.0 mi South 6.9 mph - 0.00 in   Partly Cloudy
6:50 PM 82.4 °F 86.3 °F 69.8 °F 66% 30.00 in 10.0 mi South 8.1 mph - 0.00 in   Partly Cloudy
7:10 PM 82.4 °F 86.3 °F 69.8 °F 66% 30.00 in 10.0 mi South 6.9 mph - 0.00 in   Clear
7:30 PM 80.6 °F 83.9 °F 69.8 °F 70% 30.01 in 10.0 mi South 5.8 mph - 0.00 in   Scattered Clouds
7:50 PM 80.6 °F 83.2 °F 68.0 °F 65% 30.01 in 10.0 mi South 6.9 mph - 0.00 in   Scattered Clouds
8:10 PM 78.8 °F - 66.2 °F 65% 30.01 in 10.0 mi South 5.8 mph - 0.00 in   Scattered Clouds
8:30 PM 78.8 °F - 66.2 °F 65% 30.01 in 10.0 mi South 5.8 mph - 0.00 in   Partly Cloudy
8:50 PM 77.0 °F - 66.2 °F 69% 30.02 in 10.0 mi South 5.8 mph - 0.00 in   Partly Cloudy
9:10 PM 77.0 °F - 64.4 °F 65% 30.02 in 10.0 mi South 4.6 mph - 0.00 in   Clear
9:30 PM 75.2 °F - 64.4 °F 69% 30.02 in 10.0 mi South 5.8 mph - 0.00 in   Partly Cloudy
9:50 PM 75.2 °F - 64.4 °F 69% 30.02 in 10.0 mi South 6.9 mph - 0.00 in   Clear
10:10 PM 75.2 °F - 66.2 °F 73% 30.02 in 10.0 mi SSW 8.1 mph - 0.00 in   Clear
10:30 PM 75.2 °F - 66.2 °F 73% 30.02 in 10.0 mi SSW 6.9 mph - 0.00 in   Scattered Clouds
10:50 PM 75.2 °F - 66.2 °F 73% 30.01 in 10.0 mi SSW 6.9 mph - 0.00 in   Scattered Clouds
11:10 PM 75.2 °F - 66.2 °F 73% 30.01 in 10.0 mi SSW 5.8 mph - 0.00 in   Clear
11:30 PM 73.4 °F - 66.2 °F 78% 30.01 in 10.0 mi SSW 5.8 mph - 0.00 in   Clear
11:50 PM 73.4 °F - 66.2 °F 78% 30.00 in 10.0 mi SSW 5.8 mph - 0.00 in   Clear